Regional Weather Roundup
Issued by NWS Boston, MA

Home | Current Version | Previous Version | Text Only | Print | Product List | Glossary On
Versions: 1 2 3 4 5 6 7 8 9 10 11 12 13 14 15 16 17 18 19 20 21 22 23 24 25 26 27 28 29 30 31 32 33 34 35 36 37 38 39 40 41 42 43 44 45
000
ASUS41 KBOX 261210
RWRBOX

REGIONAL WEATHER ROUNDUP
NATIONAL WEATHER SERVICE TAUNTON MA
700 AM EST FRI DEC 26 2014

NOTE:  "FAIR" INDICATES FEW OR NO CLOUDS BELOW 12,000 FEET WITH NO
SIGNIFICANT WEATHER AND/OR OBSTRUCTIONS TO VISIBILITY.  THE FOLLOWING
OBSERVATION LOCATIONS DO NOT REPORT PRESENT WEATHER...PROVINCETOWN...
SMITHFIELD...BLOCK ISLAND...KEENE...AND OXFORD.

MAZALL-261300-
EASTERN MASSACHUSETTS

CITY           SKY/WX    TMP DP  RH WIND       PRES   REMARKS
BOSTON         CLEAR     38  29  70 SW13      30.11R WCI  30
6HR MIN TEMP:  37; 6HR MAX TEMP:  43;

BEVERLY        CLEAR     36  27  69 SW7       30.08R WCI  30
LAWRENCE       CLEAR     36  28  73 SW7       30.09R WCI  30
BEDFORD        CLEAR     32  27  81 S7        30.09R WCI  26
BLUE HILL        N/A     35  27  72 SW13      30.08R WCI  26
NORWOOD        CLEAR     36  28  73 SW6       30.11R WCI  31
MARSHFIELD     CLEAR     37  30  75 W6        30.13R
PLYMOUTH       CLEAR     36  30  79 SW6       30.12R WCI  31
TAUNTON        CLEAR     38  30  73 SW6       30.12R
NEW BEDFORD    CLEAR     36  31  82 SW6       30.13R WCI  31
$$

MAZALL-261300-
CAPE COD AND THE ISLANDS

CITY           SKY/WX    TMP DP  RH WIND       PRES   REMARKS
FALMOUTH       CLEAR     39  32  75 W9        30.13R
HYANNIS        CLEAR     38  31  76 W7        30.12R
CHATHAM        CLEAR     38  31  76 W6        30.12R
PROVINCETOWN   CLEAR     41  32  70 W14G21    30.11R
NANTUCKET      CLEAR     41  31  67 W9        30.13R
MARTHAS VNYRD  CLEAR     41  27  57 W8        30.13R
$$

MAZALL-261300-
CENTRAL AND WESTERN MASSACHUSETTS

CITY           SKY/WX    TMP DP  RH WIND       PRES   REMARKS
WORCESTER      CLEAR     34  28  79 W7        30.08R WCI  28
6HR MIN TEMP:  34; 6HR MAX TEMP:  38;

FITCHBURG      CLEAR     38  28  67 W5        30.10R
ORANGE         MOCLDY    38  28  67 VRB6      30.10R
SPRINGFIELD    CLEAR     39  28  65 W8        30.13R
WESTFIELD      MOCLDY    41  28  60 W9        30.14R
NORTH ADAMS    CLOUDY    39  27  62 W17       30.13R WCI  30
PITTSFIELD     CLOUDY    36  27  69 VRB6      30.11R WCI  31
$$

RIZALL-261300-
RHODE ISLAND

CITY           SKY/WX    TMP DP  RH WIND       PRES   REMARKS
PROVIDENCE     PTCLDY    37  29  72 SW8       30.15R WCI  31
6HR MIN TEMP:  34; 6HR MAX TEMP:  42;

NEWPORT        CLEAR     39  30  70 VRB5      30.15R
BLOCK ISLAND   CLEAR     43  28  56 W9G16     30.16R
SMITHFIELD     CLEAR     30  21  69 SW3       30.11R
WESTERLY       CLEAR     39  30  70 W5        30.17R
$$

CTZALL-261300-
CONNECTICUT

CITY           SKY/WX    TMP DP  RH WIND       PRES   REMARKS
BRADLEY INTL   MOCLDY    39  28  64 W7        30.15R
6HR MIN TEMP:  37; 6HR MAX TEMP:  42;

HARTFORD       PTCLDY    32  28  85 S5        30.17R WCI  27
BRIDGEPORT     CLEAR     38  30  73 W7        30.20R
DANBURY        CLEAR     29  24  82 CALM      30.20R
GROTON         CLEAR     37  30  75 W7        30.17R WCI  32
NEW HAVEN      CLEAR     42  31  64 VRB5      30.19R
CHESTER        FAIR      36  30  80 W6        30.17R WCI  31
MERIDEN        CLEAR     27  25  92 CALM      30.18R
WILLIMANTIC    CLEAR     31  28  89 SW3       30.16R
OXFORD         CLEAR     39  30  70 CALM      30.17R
$$

MEZ002-015-021-024-NHZ003-005-008-011-012-014-VTZ005-008-261300-
NORTHERN NEW ENGLAND

CITY           SKY/WX    TMP DP  RH WIND       PRES   REMARKS
PORTLAND ME    CLEAR     41  26  55 W13       30.00R
6HR MIN TEMP:  40; 6HR MAX TEMP:  43;

BANGOR ME      PTCLDY    38  24  57 SW7       29.90R
CONCORD NH     CLOUDY    40  28  62 W9        30.05R
MANCHESTER NH  PTCLDY    41  28  60 W10       30.05R
NASHUA NH      CLEAR     34  30  85 CALM      30.08R
PORTSMOUTH NH  PTCLDY    35  27  73 W5        30.04R WCI  30
JAFFREY NH     CLOUDY    38  28  67 W6        30.07R
KEENE NH       CLOUDY    39  28  65 SW5       30.10R
BURLINGTON VT  CLOUDY    41  27  57 W9        30.09R
MT. WASHINGTON FOG       14  14 100 NW82G94     N/A  VSB 1/16WCI -16
$$

NYZ052-076-261300-
EASTERN NEW YORK

CITY           SKY/WX    TMP DP  RH WIND       PRES   REMARKS
ALBANY         CLOUDY    41  28  60 NW10      30.18R
6HR MIN TEMP:  41; 6HR MAX TEMP:  43;

NEW YORK CITY  CLEAR     41  28  60 W12       30.22R
6HR MIN TEMP:  40; 6HR MAX TEMP:  44;

$$

ANZALL-261300-
MARINE OBSERVATIONS

STATION/POSITION TIME  TEMP    WIND        PRES    VSBY  WAVE
                       AIR SEA DIR/SP/G                  HT/PER
                 (UTC) (F)     (DEG/KT/KT) (MB)    (MI)  (FT/S)
BOSTON BUOY      1150   41 44  240/ 16/ 17 1019.0R         2/ 3
BUZZARDS BAY     1100          260/ 16/ 18 1020.6R
NANTUCKET SOUND  1150   44 44  260/ 14/ 17 1019.8R         2/ 4
MASS BAY-STELLWA 1104   43 44  250/ 16/ 19   N/A    1 7/8  2/ 3
ISLE OF SHOALS   1200   40     240/ 15/ 17 1016.9R
S OF BLOCK IS    1108      50                N/A           6/ 8
$$

......................KEY.........................
  SKY/WX - SKY CONDITION/PRESENT WEATHER
  TMP    - TEMPERATURE IN FAHRENHEIT
  DWPT   - DEWPOINT IN FAHRENHEIT
  RH     - RELATIVE HUMIDITY IN PERCENT
  WIND   - DIRECTION AND SPEED IN MPH
  PRES   - MEAN SEA LEVEL PRESSURE IN INCHES OF HG
  WCI    - WIND CHILL INDEX
  VSB    - VISIBILITY IN MILES
  HX     - HEAT INDEX
  TC     - TEMPERATURE IN CELSIUS
  VRB    - VARIABLE WIND DIRECTION
  N/A    - NOT AVAILABLE


USA.gov is the U.S. government's official web portal to all federal, state and local government web resources and services.